RADUGA-1 6 [-]

Last updated on July 6, 2021, 3:35 p.m. UTC

1 26936U 01045A   21186.72348021 -.00000125  00000-0  00000-0 0  9990
2 26936  12.9583  27.1886 0014143 147.1694  33.9150  0.97745083 70936
UTC
Height (km)
Latitude
Longitude
Inclination
Orbital Period
UTC large
Height (km)
Speed (km/s)
/
Latitude / Longitude
Inclination (degrees)
Orbital Period (minutes)
Azimuth
Elevation
Range (km)
Doppler Factor
iOS Compass Heading
iOS Angle